Regional Weather Roundup
Issued by NWS

Home | Current Version | Previous Version | Text Only | Print | Product List | Glossary On
Versions: 1 2 3 4 5 6 7 8 9 10 11 12 13 14 15 16 17 18 19 20 21 22 23 24 25 26 27 28 29 30 31 32 33 34 35 36 37 38 39 40 41 42 43 44 45 46 47 48 49 50
000
ASUS45 KTFX 291410
RWRMT
MONTANA REGIONAL WEATHER ROUNDUP
NATIONAL WEATHER SERVICE GREAT FALLS MT
800 AM MDT FRI JUL 29 2016

NOTE: "FAIR" INDICATES FEW OR NO CLOUDS BELOW 12000 FEET WITH NO
SIGNIFICANT WEATHER AND/OR OBSTRUCTIONS TO VISIBILITY.

MTZ001>007-043-291500-
WEST OF THE DIVIDE

CITY           SKY/WX    TMP DP  RH WIND       PRES   REMARKS
KALISPELL      SUNNY     66  55  67 N10       30.07R
MISSOULA       SUNNY     62  51  67 SE3       30.11R
BUTTE          SUNNY     53  38  56 CALM      30.22R
MULLAN PASS    SUNNY     67  41  38 CALM      30.22S
ANACONDA         N/A     63  43  48 CALM      30.18S
DEER LODGE       N/A     59  48  67 CALM      30.20S
EUREKA           N/A     63  52  67 CALM      30.09S
HAMILTON         N/A     64  48  55 CALM      30.11S
LIBBY            N/A     61  48  63 CALM      30.08S
PLAINS           N/A     58  48  69 CALM      30.07R
RONAN            N/A     61  53  74 CALM      30.11S
$$

MTZ008-052>055-291500-
SOUTHWEST MONTANA

CITY           SKY/WX    TMP DP  RH WIND       PRES   REMARKS
BOZEMAN        SUNNY     64  50  60 CALM      30.16R
DILLON         SUNNY     56  44  64 SW7       30.17R
W YELLOWSTONE  SUNNY     50  39  66 CALM      30.28S
ENNIS          SUNNY     61  41  48 CALM      30.23S
THREE FORKS      N/A     59  27  29 CALM      30.13S
TWIN BRIDGES     N/A     56  43  61 CALM      30.14S
$$

MTZ009-010-012-014-046-048-049-054-291500-
EAST SLOPES AND CENTRAL MONTANA

CITY           SKY/WX    TMP DP  RH WIND       PRES   REMARKS
CUT BANK       SUNNY     62  55  77 NE7       30.13S
GREAT FALLS    SUNNY     63  54  72 SW9       30.13F
MALMSTROM AFB  SUNNY     63  56  77 SW8       30.13S
HELENA         MOSUNNY   68  52  56 W10       30.14F
CHOTEAU          N/A     64  54  68 S5        30.16S
CONRAD           N/A     62  61  97 CALM      30.15R
$$

MTZ011-013-016-021-045-047-050-051-291500-
NORTH CENTRAL MONTANA

CITY           SKY/WX    TMP DP  RH WIND       PRES   REMARKS
HAVRE          MOSUNNY   66  60  81 W7        30.07S
N BAR RANCH      N/A     64  50  59 N5        30.15S
CHINOOK          N/A     66  63  88 W7        30.06R
$$

MTZ017>020-022>027-061-062-291500-
NORTHEAST MONTANA

CITY           SKY/WX    TMP DP  RH WIND       PRES   REMARKS
GLASGOW        CLOUDY    64  58  80 SE8       30.06S
JORDAN           N/A     62  59  90 E5        30.07S
SIDNEY         MOSUNNY   60  57  89 SE3       30.10S
WOLF POINT     PTSUNNY   63  57  81 E6        30.08F
PLENTYWOOD       N/A     64  57  77 SE3       30.10S
POPLAR           N/A     64  57  77 SE3       30.08F
SCOBEY           N/A     58  45  62 CALM      30.07S
$$

MTZ028>42-056>058-291500-
SOUTHCENTRAL AND SOUTHEAST MONTANA

CITY           SKY/WX    TMP DP  RH WIND       PRES   REMARKS
BAKER          CLOUDY    61  59  93 SE8       30.13R
BILLINGS       MOSUNNY   63  52  67 SW5       30.10S
LIVINGSTON     SUNNY     58  50  75 W5        30.16S
MILES CITY     SUNNY     65  59  81 SE5       30.08R
EKALAKA          N/A     60  57  89 E8        30.09S
FORSYTH          N/A     64  61  88 E6        30.06F
LAUREL           N/A     61  52  72 CALM      30.09R
ROUNDUP          N/A     59  50  72 CALM      30.00F
$$

REGIONAL REPORTS...DAKOTAS

CITY           SKY/WX    TMP DP  RH WIND       PRES   REMARKS
WILLISTON      SUNNY     63  56  78 CALM      30.10S
MINOT          CLOUDY    66  58  75 CALM      30.10R
DICKINSON      CLOUDY    61  58  90 S5        30.11S
BEACH          CLOUDY    59  59 100 S8        30.15S
CROSBY           N/A     63  63 100 S6        30.12R
WATFORD CITY     N/A    N/A N/A N/A MISG        N/A
BISMARCK       SUNNY     69  62  78 CALM      30.10S
GRAND FORKS    MOSUNNY   66  58  75 NW5       30.09S
FARGO          SUNNY     68  59  73 CALM      30.08S
BUFFALO SD       N/A     61  59  93 S7        30.06S
RAPID CITY     SUNNY     62  58  86 CALM      30.12S
$$

REGIONAL REPORTS...WYOMING/IDAHO/WASHINGTON

CITY           SKY/WX    TMP DP  RH WIND       PRES   REMARKS
GILLETTE       SUNNY     64  58  80 S14       30.13F
SHERIDAN       SUNNY     61  53  75 S3        30.12F
BUFFALO WY     SUNNY     66  46  48 NW7       30.17S
CODY           SUNNY     64  48  55 S3        30.18S
YELLOWSTONE LA   N/A     50  43  77 CALM      30.35S
IDAHO FALLS    SUNNY     55  48  77 NW3       30.11R
SALMON         SUNNY     57  43  58 CALM      30.12R
BOISE          SUNNY     72  41  32 SE7       29.99R HAZE
SPOKANE        MOSUNNY   70  52  52 E8        30.00R
$$

REGIONAL REPORTS...ALBERTA

CITY           SKY/WX    TMP DP  RH WIND       PRES   REMARKS
EDMONTON       SUNNY     59  57  94 SW5       30.00F
CALGARY        SUNNY     59  52  77 CALM      30.10F
LETHBRIDGE     SUNNY     61  57  88 SW8       30.10S
MEDICINE HAT   MOSUNNY   72  61  68 SW6       30.06S
$$

REGIONAL REPORTS...SASKATCHEWAN

CITY           SKY/WX    TMP DP  RH WIND       PRES   REMARKS
SWIFT CURRENT  LGT RAIN  59  57  94 E2        30.05F
REGINA         PTSUNNY   59  52  77 SE8       30.06S
SASKATOON      LGT RAIN  63  63 100 SW9       30.02S
$$



USA.gov is the U.S. government's official web portal to all federal, state and local government web resources and services.